TimeEST,TemperatureF,Dew PointF,Humidity,Sea Level PressureIn,VisibilityMPH,Wind Direction,Wind SpeedMPH,Gust SpeedMPH,PrecipitationIn,Events,Conditions,WindDirDegrees,DateUTC
12:56 AM,7.0,-0.0,73,30.32,10.0,NNW,12.7,-,N/A,,Partly Cloudy,330,2014-01-03 05:56:00
1:56 AM,3.9,-2.9,73,30.33,10.0,North,9.2,-,N/A,,Scattered Clouds,350,2014-01-03 06:56:00
2:56 AM,1.9,-4.0,76,30.39,10.0,WNW,5.8,-,N/A,,Clear,300,2014-01-03 07:56:00
3:56 AM,1.0,-5.1,75,30.41,10.0,NW,6.9,-,N/A,,Clear,320,2014-01-03 08:56:00
4:56 AM,-0.9,-7.1,75,30.43,10.0,West,5.8,-,N/A,,Clear,280,2014-01-03 09:56:00
5:56 AM,-0.9,-6.0,79,30.44,10.0,WNW,4.6,-,N/A,,Clear,300,2014-01-03 10:56:00
6:56 AM,-2.9,-8.0,79,30.48,10.0,WNW,8.1,-,N/A,,Clear,300,2014-01-03 11:56:00
7:56 AM,-2.0,-7.1,79,30.49,10.0,WNW,4.6,-,N/A,,Clear,290,2014-01-03 12:56:00
8:56 AM,-0.9,-7.1,75,30.51,10.0,Calm,Calm,-,N/A,,Clear,0,2014-01-03 13:56:00
9:56 AM,3.0,-5.1,69,30.53,10.0,Calm,Calm,-,N/A,,Clear,0,2014-01-03 14:56:00
10:56 AM,6.1,-4.0,63,30.54,10.0,Calm,Calm,-,N/A,,Clear,0,2014-01-03 15:56:00
11:56 AM,7.0,-4.0,61,30.52,10.0,Calm,Calm,-,N/A,,Clear,0,2014-01-03 16:56:00
12:56 PM,10.0,-4.0,53,30.50,10.0,WSW,5.8,-,N/A,,Clear,240,2014-01-03 17:56:00
1:56 PM,12.9,-4.0,47,30.47,10.0,WSW,3.5,-,N/A,,Clear,250,2014-01-03 18:56:00
2:56 PM,12.9,-2.0,51,30.48,10.0,SSW,4.6,-,N/A,,Clear,210,2014-01-03 19:56:00
3:56 PM,12.9,-2.0,51,30.47,10.0,SSW,5.8,-,N/A,,Partly Cloudy,210,2014-01-03 20:56:00
4:56 PM,14.0,-0.9,52,30.45,10.0,SSE,8.1,-,N/A,,Scattered Clouds,160,2014-01-03 21:56:00
5:56 PM,14.0,1.0,56,30.43,10.0,South,9.2,-,N/A,,Mostly Cloudy,180,2014-01-03 22:56:00
6:56 PM,14.0,1.9,59,30.42,10.0,SSE,100.1,-,N/A,,Overcast,160,2014-01-03 23:56:00
7:56 PM,12.9,3.0,65,30.39,10.0,SSE,8.1,-,N/A,,Partly Cloudy,160,2014-01-04 00:56:00
8:56 PM,12.0,3.0,67,30.38,10.0,SSE,8.1,-,N/A,,Clear,160,2014-01-04 01:56:00
9:56 PM,12.0,3.9,70,30.33,10.0,South,13.8,-,N/A,,Clear,170,2014-01-04 02:56:00
10:56 PM,12.9,5.0,71,30.30,10.0,South,12.7,-,N/A,,Clear,170,2014-01-04 03:56:00
11:56 PM,12.0,3.9,70,30.28,10.0,SSE,12.7,-,N/A,,Clear,160,2014-01-04 04:56:00